{"data":{"norad_id":63210,"epoch":"2026-09-22T22:24:25.218144Z","epoch_age_seconds":100724,"freshness":"FRESH","line1":"1 63210U 25052A   26265.93362521  .00013171  00000+0  37423-3 0  9992","line2":"2 63210  97.3862 162.9447 0005288  91.9764 268.2085 15.36288911 85098","mean_motion":15.36288911,"eccentricity":0.0005288,"inclination_deg":97.3862,"raan_deg":162.9447,"arg_perigee_deg":91.9764,"mean_anomaly_deg":268.2085,"bstar":0.00037423,"rev_number":8509,"period_min":93.732369588131,"perigee_km":453.48028127265,"apogee_km":460.70922237338,"semimajor_km":6835.231751823,"source":"CELESTRAK","updated_at":"2026-09-23T09:00:21.897026Z"}}